Regional Weather Roundup
Issued by NWS Cleveland, OH

Home | Current Version | Previous Version | Text Only | Print | Product List | Glossary On
Versions: 1 2 3 4 5 6 7 8 9 10 11 12 13 14 15 16 17 18 19 20 21 22 23 24 25 26 27 28 29 30 31 32 33 34 35 36 37 38 39 40 41 42 43 44 45 46 47 48 49 50
000
ASUS41 KCLE 272012
RWRCLE
OHIO REGIONAL WEATHER ROUNDUP
NATIONAL WEATHER SERVICE WILMINGTON, OH
400 PM EDT TUE SEP 27 2016

NOTE: "FAIR" INDICATES FEW OR NO CLOUDS BELOW 12,000 FEET WITH NO
SIGNIFICANT WEATHER AND/OR OBSTRUCTIONS TO VISIBILITY.

OHZ001>008-015>018-024>027-034-035-043-044-272100-
   NORTHWEST OHIO

CITY           SKY/WX    TMP DP  RH WIND       PRES   REMARKS
DEFIANCE       FAIR      72  33  24 W9G21     29.76F
FINDLAY        FAIR      75  33  21 SW20G26   29.76F
TOLEDO EXPRESS FAIR      70  33  25 SW18G31   29.75F
TOLEDO EXEC    FAIR      72  35  25 SW21G35   29.76F
LIMA           FAIR      74  37  26 SW21G29   29.79F
$$

OHZ009>014-019>023-028>033-038-089-272100-
   NORTHEAST OHIO

CITY           SKY/WX    TMP DP  RH WIND       PRES   REMARKS
CLE-HOPKINS    FAIR      73  37  27 SW23G30   29.79F
CLE-LAKEFRONT  FAIR      75  40  28 SW21G33   29.77R
CUY CO. ARPT   MOSUNNY   72  41  33 SW14G25   29.79S
LORAIN-ELYRIA  FAIR      73  32  22 W20G31    29.78F
ASHTABULA      FAIR      70  43  37 SW17G25   29.81F
AKRON-CANTON   FAIR      69  41  36 SW13G32   29.83F
WOOSTER        LGT RAIN  73  38  27 W16G28    29.82F
MANSFIELD      FAIR      73  38  27 SW17G26   29.81F
YOUNGSTOWN     PTSUNNY   70  40  33 SW17G25   29.83F
$$

OHZ042-051>053-060>062-070>072-077>081-272100-
  SOUTHWEST OHIO

CITY           SKY/WX    TMP DP  RH WIND       PRES   REMARKS
CINC-COVINGTON FAIR      74  45  35 SW9G20    29.88F
CINC-LUNKEN    FAIR      74  45  35 SW13G30   29.87F
HAMILTON       FAIR      75  44  33 SW13G23   29.87F
DAYTON         FAIR      74  43  32 SW24G35   29.84F
WRIGHT-PAT AFB FAIR      74  42  31 SW23G30   29.83F
DAYTON GENERAL FAIR      73  43  33 SW16G25   29.85F
WILMINGTON     FAIR      72  44  36 SW20      29.86F
$$

OHZ036-037-039>041-045>050-054>059-063>069-073>076-082>088-272100-
  CENTRAL AND SOUTHEAST OHIO

CITY           SKY/WX    TMP DP  RH WIND       PRES   REMARKS
COLUMBUS       FAIR      73  41  31 SW21G26   29.85F
OSU AIRPORT    FAIR      73  42  32 SW13G26   29.84F
BOLTON FIELD   MOSUNNY   73  45  35 SW17G24   29.88S
RICKENBACK AFB FAIR      73  41  31 SW13G20   29.85F
NEWARK         FAIR      74  36  25 SW15      29.84F
MARION         FAIR      75  37  25 SW17G26   29.80F
LANCASTER      FAIR      74  36  25 W18G28    29.87F
ZANESVILLE     FAIR      74  37  26 SW9       29.86F
NEW PHILLY     FAIR      73  38  27 SW9G21    29.85F
$$




USA.gov is the U.S. government's official web portal to all federal, state and local government web resources and services.